EW2348 Weather Reports


Display with metric or nautical units.
time (UTC)temp
F
wind
direction
speed
MPH
gust
MPH
rain 1hr
in
rain 24hr
in
rain mn
in
humidity
%
barometer
mb
20161001153527 60 74 1.0 5.0 0.00 0.00 0.00 91 1012.7
20161001153327 60 71 3.0 6.0 0.00 0.00 0.00 92 1012.8
20161001153227 60 71 2.0 6.0 0.00 0.00 0.00 92 1012.7
20161001152927 59 75 1.0 8.0 0.00 0.00 0.00 93 1012.8
20161001152827 59 80 1.0 8.0 0.00 0.00 0.00 93 1012.8
20161001152527 59 86 1.0 8.0 0.00 0.00 0.00 94 1012.8
20161001152427 59 88 3.0 8.0 0.00 0.00 0.00 94 1012.9
20161001152227 58 88 1.0 8.0 0.00 0.00 0.00 94 1013.0
20161001152127 58 90 3.0 8.0 0.00 0.00 0.00 94 1012.9
20161001152027 58 90 4.0 8.0 0.00 0.00 0.00 94 1012.9
20161001151627 58 84 2.0 5.0 0.00 0.00 0.00 94 1012.8
20161001151426 58 77 1.0 5.0 0.00 0.00 0.00 94 1012.9
20161001151327 58 77 1.0 5.0 0.00 0.00 0.00 94 1012.9
20161001151127 58 76 3.0 5.0 0.00 0.00 0.00 94 1012.8
20161001151027 59 76 3.0 5.0 0.00 0.00 0.00 93 1012.9
20161001150427 59 93 3.0 7.0 0.00 0.00 0.00 94 1012.9
20161001150327 59 93 3.0 7.0 0.00 0.00 0.00 94 1012.8
20161001150228 59 90 3.0 7.0 0.00 0.00 0.00 94 1013.0
20161001145927 59 90 3.0 7.0 0.00 0.00 0.00 95 1012.8
20161001145827 58 90 3.0 7.0 0.00 0.00 0.00 96 1013.0
20161001145728 58 82 6.0 7.0 0.00 0.00 0.00 96 1012.8
20161001145427 58 76 1.0 4.0 0.00 0.00 0.00 97 1013.0
20161001145327 58 72 2.0 4.0 0.00 0.00 0.00 97 1012.8
20161001145227 58 77 2.0 4.0 0.00 0.00 0.00 97 1012.8
20161001145027 58 65 1.0 3.0 0.00 0.00 0.00 97 1012.9
20161001144727 58 58 1.0 4.0 0.00 0.00 0.00 97 1012.7
20161001144627 58 54 1.0 4.0 0.00 0.00 0.00 97 1012.8
20161001144327 57 69 1.0 4.0 0.00 0.00 0.00 97 1012.6
20161001144127 57 72 1.0 4.0 0.00 0.00 0.00 97 1012.6
20161001144027 58 76 2.0 4.0 0.00 0.00 0.00 97 1012.8
20161001143928 57 72 1.0 4.0 0.00 0.00 0.00 97 1012.7
20161001143527 58 52 3.0 4.0 0.00 0.00 0.00 96 1012.8
20161001143427 57 45 1.0 4.0 0.00 0.00 0.00 96 1012.7
20161001143227 58 41 2.0 3.0 0.00 0.00 0.00 97 1012.5
20161001143028 58 51 1.0 3.0 0.00 0.00 0.00 97 1012.7
20161001142727 58 71 1.0 4.0 0.00 0.00 0.00 97 1012.7
20161001142337 57 99 1.0 5.0 0.00 0.00 0.00 98 1012.9
20161001142032 57 90 3.0 5.0 0.00 0.00 0.00 99 1012.7
20161001141733 56 90 0.0 5.0 0.00 0.00 0.00 99 1012.7
20161001141627 57 90 2.0 5.0 0.00 0.00 0.00 99 1012.8
20161001141527 57 89 3.0 5.0 0.00 0.00 0.00 99 1012.7
20161001141427 56 82 3.0 5.0 0.00 0.00 0.00 99 1012.7
20161001141327 56 79 1.0 3.0 0.00 0.00 0.00 99 1012.6
20161001141226 57 83 1.0 3.0 0.00 0.00 0.00 99 1012.9
20161001141027 57 90 1.0 3.0 0.00 0.00 0.00 99 1012.7
20161001140927 57 89 1.0 3.0 0.00 0.00 0.00 99 1012.9
20161001140827 56 88 1.0 3.0 0.00 0.00 0.00 99 1012.7
20161001140727 56 88 1.0 3.0 0.00 0.00 0.00 99 1012.6
20161001140627 56 88 1.0 3.0 0.00 0.00 0.00 99 1012.6
20161001140527 56 88 1.0 3.0 0.00 0.00 0.00 99 1012.7
20161001140027 56 87 1.0 3.0 0.00 0.00 0.00 99 1012.7
20161001135927 56 88 1.0 3.0 0.00 0.00 0.00 99 1012.6
20161001135727 56 90 1.0 4.0 0.00 0.00 0.00 99 1012.7
20161001135627 56 90 2.0 4.0 0.00 0.00 0.00 99 1012.7
20161001135326 56 86 1.0 4.0 0.00 0.00 0.00 99 1012.7
20161001135027 56 83 0.0 4.0 0.00 0.00 0.00 99 1012.7
20161001134427 55 84 1.0 4.0 0.00 0.00 0.00 97 1012.8
20161001134226 55 82 2.0 4.0 0.00 0.00 0.00 97 1012.6
20161001133527 55 82 1.0 3.0 0.00 0.00 0.00 97 1012.7
20161001133427 54 87 2.0 3.0 0.00 0.00 0.00 97 1012.7
20161001133327 55 84 1.0 4.0 0.00 0.00 0.00 97 1012.3
20161001133227 55 83 0.0 4.0 0.00 0.00 0.00 97 1012.7
20161001133127 55 84 0.0 4.0 0.00 0.00 0.00 97 1012.6
20161001132528 54 48 1.0 4.0 0.00 0.00 0.00 97 1012.8
20161001132427 54 46 1.0 4.0 0.00 0.00 0.00 97 1012.7
20161001132327 54 48 1.0 3.0 0.00 0.00 0.00 97 1012.6
20161001132228 54 46 1.0 3.0 0.00 0.00 0.00 97 1012.6
20161001131626 54 79 2.0 5.0 0.00 0.00 0.00 97 1012.7
20161001131427 54 73 1.0 5.0 0.00 0.00 0.00 97 1012.7
20161001131227 54 71 1.0 5.0 0.00 0.00 0.00 97 1012.9
20161001131027 54 75 1.0 5.0 0.00 0.00 0.00 97 1012.8
20161001130926 54 76 1.0 5.0 0.00 0.00 0.00 97 1012.7
20161001130627 54 70 2.0 5.0 0.00 0.00 0.00 97 1012.7
20161001130326 54 82 2.0 5.0 0.00 0.00 0.00 97 1012.6
20161001130227 54 84 2.0 6.0 0.00 0.00 0.00 97 1012.7
20161001130127 54 83 1.0 6.0 0.00 0.00 0.00 97 1012.7
20161001130027 54 77 4.0 6.0 0.00 0.00 0.00 97 1012.7
20161001125827 54 78 1.0 6.0 0.00 0.00 0.00 97 1012.6
20161001125627 54 81 2.0 6.0 0.00 0.00 0.00 97 1012.6
20161001125127 54 70 3.0 5.0 0.00 0.00 0.00 97 1012.6
20161001125027 54 74 3.0 5.0 0.00 0.00 0.00 97 1012.7
20161001124927 54 70 3.0 5.0 0.00 0.00 0.00 97 1012.6
20161001124627 54 46 2.0 5.0 0.00 0.00 0.00 97 1012.5
20161001124527 54 34 2.0 5.0 0.00 0.00 0.00 97 1012.4
20161001124326 54 11 1.0 5.0 0.00 0.00 0.00 97 1012.4
20161001124227 54 9 3.0 5.0 0.00 0.00 0.00 97 1012.4
20161001124127 54 16 0.0 3.0 0.00 0.00 0.00 97 1012.3
20161001123927 54 32 1.0 3.0 0.00 0.00 0.00 97 1012.6
20161001123827 54 41 0.0 3.0 0.00 0.00 0.00 97 1012.5
20161001123627 54 55 0.0 3.0 0.00 0.00 0.00 97 1012.5
20161001123527 54 65 1.0 3.0 0.00 0.00 0.00 97 1012.5
20161001123327 53 80 1.0 3.0 0.00 0.00 0.00 98 1012.6
20161001123226 53 84 1.0 3.0 0.00 0.00 0.00 98 1012.4
20161001123130 53 84 2.0 3.0 0.00 0.00 0.00 98 1012.5
20161001123027 53 78 0.0 3.0 0.00 0.00 0.00 98 1012.5
20161001122827 53 77 1.0 3.0 0.00 0.00 0.00 98 1012.5
20161001122527 53 72 0.0 3.0 0.00 0.00 0.00 98 1012.3
20161001122327 53 75 1.0 3.0 0.00 0.00 0.00 98 1012.5
20161001122027 52 73 2.0 3.0 0.00 0.00 0.00 98 1012.3
20161001121927 53 72 2.0 3.0 0.00 0.00 0.00 98 1012.1
20161001121727 52 76 0.0 3.0 0.00 0.00 0.00 98 1012.3
20161001121627 52 73 0.0 3.0 0.00 0.00 0.00 98 1012.2
20161001121226 52 59 1.0 3.0 0.00 0.00 0.00 98 1012.1
20161001121127 52 60 1.0 3.0 0.00 0.00 0.00 98 1012.1
20161001120826 52 54 1.0 3.0 0.00 0.00 0.00 98 1012.2
20161001120627 52 58 1.0 2.0 0.00 0.00 0.00 98 1012.0
20161001120527 52 63 1.0 3.0 0.00 0.00 0.00 98 1012.2
20161001120127 52 63 1.0 3.0 0.00 0.00 0.00 98 1012.1
20161001120027 52 66 1.0 4.0 0.00 0.00 0.00 98 1012.2
20161001115927 52 70 1.0 4.0 0.00 0.00 0.00 98 1012.1
20161001115827 52 68 0.0 4.0 0.00 0.00 0.00 98 1012.2
20161001115427 53 70 2.0 4.0 0.00 0.00 0.00 98 1011.8
20161001115327 53 75 1.0 4.0 0.00 0.00 0.00 98 1012.2
20161001115127 53 81 2.0 4.0 0.00 0.00 0.00 98 1012.1
20161001114727 53 87 2.0 6.0 0.00 0.00 0.00 98 1012.0
20161001114627 53 90 2.0 6.0 0.00 0.00 0.00 98 1012.1
20161001114427 53 87 1.0 6.0 0.00 0.00 0.00 98 1012.0
20161001114327 53 84 2.0 6.0 0.00 0.00 0.00 98 1012.1
20161001114227 53 84 2.0 6.0 0.00 0.00 0.00 98 1011.9
20161001114127 53 84 2.0 6.0 0.00 0.00 0.00 98 1012.1
20161001113627 53 82 2.0 6.0 0.00 0.01 0.00 98 1011.8
20161001113527 53 84 2.0 6.0 0.00 0.01 0.00 98 1012.0
20161001112927 53 76 4.0 6.0 0.00 0.01 0.00 98 1012.0
20161001112627 53 75 1.0 4.0 0.00 0.01 0.00 98 1012.0
20161001112127 53 59 1.0 4.0 0.00 0.01 0.00 98 1012.0
20161001112027 53 54 1.0 4.0 0.00 0.01 0.00 98 1011.9
20161001111927 53 51 1.0 4.0 0.00 0.01 0.00 98 1012.0
20161001111827 53 49 2.0 4.0 0.00 0.01 0.00 98 1011.9
20161001111726 52 44 2.0 4.0 0.00 0.01 0.00 98 1011.9
20161001111527 53 47 2.0 4.0 0.00 0.01 0.00 98 1012.0
20161001111428 53 47 3.0 4.0 0.00 0.01 0.00 98 1011.7
20161001111327 53 49 1.0 4.0 0.00 0.01 0.00 98 1012.1
20161001111226 53 54 2.0 4.0 0.00 0.01 0.00 98 1011.8
20161001111126 53 55 1.0 4.0 0.00 0.01 0.00 98 1012.0
20161001110927 53 57 2.0 4.0 0.00 0.01 0.00 98 1011.7
20161001110827 53 58 2.0 4.0 0.00 0.01 0.00 98 1011.7
20161001110227 53 45 0.0 3.0 0.00 0.02 0.00 98 1011.7
20161001105927 53 45 1.0 3.0 0.00 0.04 0.00 98 1011.7
20161001105827 53 45 0.0 3.0 0.00 0.04 0.00 98 1011.7
20161001105627 53 45 1.0 3.0 0.00 0.04 0.00 98 1011.6
20161001105527 53 45 1.0 3.0 0.00 0.04 0.00 98 1011.8
20161001105426 53 45 1.0 3.0 0.00 0.04 0.00 98 1011.9
20161001105327 53 45 1.0 3.0 0.00 0.04 0.00 98 1011.7
20161001105127 53 45 1.0 3.0 0.00 0.04 0.00 98 1011.6
20161001104927 53 45 0.0 3.0 0.00 0.04 0.00 98 1011.7
20161001104827 53 45 1.0 3.0 0.00 0.04 0.00 98 1011.7
20161001104627 53 51 1.0 3.0 0.00 0.04 0.00 98 1011.7
20161001104526 53 54 1.0 2.0 0.00 0.04 0.00 98 1011.8
20161001104427 53 58 0.0 2.0 0.00 0.04 0.00 98 1011.8
20161001104027 53 85 0.0 2.0 0.00 0.04 0.00 98 1011.6
20161001103926 53 89 0.0 2.0 0.00 0.04 0.00 98 1011.6
20161001103827 53 90 0.0 2.0 0.00 0.04 0.00 98 1011.6
20161001103727 53 90 0.0 2.0 0.00 0.04 0.00 98 1011.5
20161001103627 53 90 0.0 2.0 0.00 0.04 0.00 98 1011.7
20161001103227 53 90 0.0 3.0 0.00 0.04 0.00 98 1011.8
20161001103127 53 90 0.0 3.0 0.00 0.04 0.00 98 1011.6
20161001103027 53 90 0.0 3.0 0.00 0.04 0.00 98 1011.4
20161001102826 53 90 1.0 3.0 0.00 0.04 0.00 98 1011.6
20161001102527 53 90 0.0 3.0 0.00 0.04 0.00 98 1011.6
20161001102426 53 90 1.0 3.0 0.00 0.04 0.00 98 1011.6
20161001101727 52 87 0.0 2.0 0.00 0.04 0.00 98 1011.6
20161001101627 52 79 0.0 2.0 0.00 0.04 0.00 98 1011.6
20161001101327 52 66 0.0 2.0 0.00 0.04 0.00 98 1011.5
20161001101226 53 64 1.0 2.0 0.00 0.04 0.00 98 1011.6
20161001101127 53 59 1.0 2.0 0.00 0.04 0.00 98 1011.7
20161001101027 53 56 0.0 2.0 0.00 0.04 0.00 98 1011.6
20161001100927 53 53 1.0 2.0 0.00 0.04 0.00 98 1011.8
20161001100627 53 54 0.0 2.0 0.00 0.04 0.00 98 1011.7
20161001100527 53 57 0.0 2.0 0.00 0.04 0.00 98 1011.7
20161001100427 53 61 0.0 2.0 0.00 0.04 0.00 98 1011.6
20161001100227 53 66 0.0 3.0 0.00 0.04 0.00 98 1011.6
20161001100127 53 67 0.0 3.0 0.00 0.04 0.00 98 1011.3
20161001100027 53 69 0.0 3.0 0.00 0.04 0.00 98 1011.5
20161001095927 53 71 1.0 3.0 0.00 0.04 0.00 98 1011.5
20161001095826 53 74 1.0 3.0 0.00 0.04 0.00 98 1011.5
20161001095727 53 69 1.0 3.0 0.00 0.04 0.00 98 1011.5
20161001095627 53 68 0.0 3.0 0.00 0.04 0.00 98 1011.3
20161001095527 53 71 1.0 4.0 0.00 0.04 0.00 98 1011.3
20161001095427 53 71 0.0 4.0 0.00 0.04 0.00 98 1011.4
20161001095127 53 79 0.0 4.0 0.00 0.04 0.00 98 1011.4
20161001095027 53 85 1.0 4.0 0.00 0.04 0.00 98 1011.4
20161001094826 53 86 2.0 4.0 0.00 0.04 0.00 98 1011.3
20161001094726 53 91 1.0 4.0 0.00 0.04 0.00 98 1011.4
20161001094527 53 89 1.0 4.0 0.00 0.04 0.00 98 1011.3
20161001094427 53 87 0.0 4.0 0.00 0.04 0.00 98 1011.3
20161001094226 53 86 1.0 4.0 0.00 0.04 0.00 98 1011.2
20161001094127 53 83 1.0 4.0 0.00 0.04 0.00 98 1011.3
20161001093927 53 80 1.0 4.0 0.00 0.04 0.00 98 1011.1
20161001093827 53 76 1.0 4.0 0.00 0.04 0.00 98 1011.3
20161001093527 53 79 1.0 3.0 0.00 0.04 0.00 98 1011.3
20161001093027 53 80 1.0 4.0 0.00 0.04 0.00 98 1011.3
20161001092927 53 81 1.0 4.0 0.00 0.04 0.00 98 1011.2
20161001092827 53 85 1.0 4.0 0.00 0.04 0.00 98 1011.3
20161001092727 53 85 1.0 4.0 0.00 0.04 0.00 98 1011.1
20161001092626 53 85 1.0 4.0 0.00 0.04 0.00 98 1011.3
20161001092327 53 87 3.0 4.0 0.00 0.04 0.00 98 1011.2
20161001091927 53 88 2.0 4.0 0.00 0.04 0.00 98 1011.3
20161001091827 53 84 1.0 4.0 0.00 0.04 0.00 98 1011.2
20161001091727 53 79 2.0 4.0 0.00 0.04 0.00 98 1011.2
20161001091626 53 79 1.0 4.0 0.00 0.04 0.00 98 1011.2
20161001091327 53 79 2.0 4.0 0.00 0.04 0.00 98 1011.2
20161001091227 53 77 0.0 4.0 0.00 0.04 0.00 98 1011.4
20161001091027 53 80 1.0 4.0 0.00 0.04 0.00 98 1011.2
20161001090927 54 81 1.0 4.0 0.00 0.04 0.00 97 1011.1
20161001090827 53 86 3.0 4.0 0.00 0.04 0.00 98 1011.4
20161001090727 53 90 1.0 3.0 0.00 0.04 0.00 98 1011.3
20161001090527 54 90 2.0 3.0 0.00 0.04 0.00 97 1011.3
20161001090427 53 89 1.0 3.0 0.00 0.04 0.00 98 1011.2
20161001090327 54 84 1.0 3.0 0.00 0.04 0.00 97 1011.3
20161001090227 54 84 1.0 3.0 0.00 0.04 0.00 97 1011.3
20161001090126 54 82 0.0 4.0 0.00 0.04 0.00 97 1011.1
20161001090027 54 81 1.0 4.0 0.00 0.04 0.00 97 1011.1
20161001085827 54 79 1.0 4.0 0.00 0.04 0.00 97 1011.3
20161001085627 54 71 1.0 4.0 0.00 0.04 0.00 97 1011.3
20161001085427 54 65 1.0 4.0 0.00 0.04 0.00 97 1011.2
20161001085027 54 55 1.0 4.0 0.00 0.04 0.00 97 1011.3
20161001084927 54 53 1.0 4.0 0.00 0.04 0.00 97 1011.0
20161001084827 54 52 1.0 4.0 0.00 0.04 0.00 97 1011.2
20161001084727 54 50 2.0 4.0 0.00 0.04 0.00 97 1011.2
20161001084626 54 53 1.0 3.0 0.00 0.04 0.00 97 1011.3
20161001084527 54 54 0.0 3.0 0.00 0.04 0.00 97 1011.1
20161001084327 54 60 1.0 3.0 0.00 0.04 0.00 97 1011.2
20161001084127 54 67 1.0 3.0 0.00 0.04 0.00 97 1011.3
20161001083927 54 76 1.0 3.0 0.00 0.04 0.00 97 1011.2
20161001083827 54 77 0.0 3.0 0.00 0.04 0.00 97 1011.3
20161001083728 54 81 0.0 3.0 0.00 0.04 0.00 97 1011.2
20161001083627 54 82 0.0 3.0 0.00 0.04 0.00 97 1011.2
20161001083527 54 85 1.0 3.0 0.00 0.04 0.00 97 1011.3
20161001083426 54 88 1.0 3.0 0.00 0.04 0.00 97 1011.2
20161001083326 54 90 1.0 4.0 0.00 0.04 0.00 97 1011.2
20161001082726 55 89 1.0 4.0 0.00 0.04 0.00 97 1011.2
20161001082327 55 83 2.0 4.0 0.00 0.04 0.00 97 1011.3
20161001082226 54 77 1.0 3.0 0.00 0.04 0.00 97 1011.3
20161001081826 54 60 1.0 3.0 0.00 0.04 0.00 97 1011.4
20161001081027 55 52 1.0 2.0 0.00 0.04 0.00 97 1011.2
20161001080626 55 45 0.0 1.0 0.00 0.04 0.00 97 1011.5
20161001080526 55 45 0.0 1.0 0.00 0.04 0.00 97 1011.5
20161001080327 55 45 0.0 3.0 0.00 0.04 0.00 97 1011.6
20161001080127 55 52 0.0 3.0 0.00 0.04 0.00 97 1011.5
20161001075727 55 55 0.0 3.0 0.00 0.04 0.00 97 1011.5
20161001075627 55 58 0.0 3.0 0.00 0.04 0.00 97 1011.5
20161001075526 55 61 0.0 3.0 0.00 0.04 0.00 97 1011.8
20161001075426 55 65 1.0 3.0 0.00 0.04 0.00 97 1011.5
20161001075327 55 70 1.0 3.0 0.00 0.04 0.00 97 1011.6
20161001075227 55 76 1.0 3.0 0.00 0.04 0.00 97 1011.6
20161001074927 55 82 1.0 3.0 0.00 0.04 0.00 97 1011.7
20161001074727 55 89 0.0 3.0 0.00 0.04 0.00 97 1011.6
20161001074627 55 90 1.0 3.0 0.00 0.04 0.00 97 1011.6
20161001074527 55 90 1.0 3.0 0.00 0.04 0.00 97 1011.7
20161001074426 55 89 1.0 3.0 0.00 0.04 0.00 97 1011.5
20161001074326 55 84 1.0 3.0 0.00 0.04 0.00 97 1011.7
20161001074127 55 81 0.0 3.0 0.00 0.04 0.00 97 1011.7
20161001074027 55 78 0.0 3.0 0.00 0.04 0.00 97 1011.5
20161001073926 55 74 1.0 3.0 0.00 0.04 0.00 97 1011.5
20161001073826 55 68 1.0 3.0 0.00 0.04 0.00 97 1011.5
20161001073627 55 56 1.0 2.0 0.00 0.04 0.00 97 1011.7
20161001073527 55 52 1.0 2.0 0.00 0.04 0.00 97 1011.6
20161001073227 55 53 0.0 2.0 0.00 0.04 0.00 97 1011.5
20161001073127 55 54 1.0 2.0 0.00 0.04 0.00 97 1011.5
20161001073027 55 59 1.0 2.0 0.00 0.04 0.00 97 1011.7
20161001072926 55 67 1.0 2.0 0.00 0.04 0.00 97 1011.5
20161001072826 55 77 0.0 2.0 0.00 0.04 0.00 97 1011.5
20161001072433 55 82 0.0 2.0 0.00 0.04 0.00 97 1011.6
20161001072135 55 81 0.0 2.0 0.00 0.04 0.00 97 1011.7
20161001072035 55 79 1.0 2.0 0.00 0.04 0.00 97 1011.8
20161001071833 55 64 0.0 2.0 0.00 0.04 0.00 97 1011.5
20161001071527 55 0 0.0 0.0 0.00 0.04 0.00 97 1011.7
20161001071226 55 90 0.0 1.0 0.00 0.04 0.00 97 1011.5
20161001071127 55 90 0.0 1.0 0.00 0.04 0.00 97 1011.6
20161001070726 55 90 0.0 1.0 0.00 0.04 0.00 97 1011.6
20161001070626 55 90 0.0 1.0 0.00 0.04 0.00 97 1011.7
20161001070126 55 0 0.0 0.0 0.00 0.04 0.00 97 1011.6
20161001070027 55 0 0.0 0.0 0.00 0.04 0.00 97 1011.9
20161001065827 55 0 0.0 0.0 0.00 0.04 0.00 97 1011.6
20161001065427 55 0 0.0 0.0 0.00 0.04 0.00 97 1011.6
20161001065327 55 90 0.0 2.0 0.00 0.04 0.00 97 1011.8
20161001065227 55 90 0.0 2.0 0.00 0.04 0.00 97 1011.7
20161001065026 55 90 0.0 2.0 0.00 0.04 0.00 99 1011.7
20161001064727 55 90 0.0 2.0 0.00 0.04 0.00 99 1011.6
20161001064627 55 90 0.0 2.0 0.00 0.04 0.00 99 1011.6
20161001064527 55 80 0.0 2.0 0.00 0.04 0.00 99 1011.8
20161001064127 55 69 0.0 3.0 0.00 0.04 0.00 99 1011.7
20161001063927 55 75 0.0 3.0 0.00 0.04 0.00 97 1011.6
20161001063826 55 75 0.0 3.0 0.00 0.04 0.00 97 1011.7
20161001063626 55 74 0.0 3.0 0.00 0.04 0.00 99 1011.5
20161001063527 55 77 0.0 3.0 0.00 0.04 0.00 99 1011.5
20161001063427 55 80 0.0 3.0 0.00 0.04 0.00 97 1011.6
20161001063226 55 90 0.0 2.0 0.00 0.04 0.00 97 1011.7
20161001063126 55 90 1.0 2.0 0.00 0.04 0.00 97 1011.6
20161001063027 55 90 1.0 2.0 0.00 0.04 0.00 97 1011.6
20161001062826 55 90 0.0 1.0 0.00 0.04 0.00 97 1011.6
20161001062527 55 90 0.0 2.0 0.00 0.04 0.00 97 1011.6
20161001062427 55 90 0.0 2.0 0.00 0.04 0.00 97 1011.7
20161001062327 55 90 0.0 2.0 0.00 0.04 0.00 97 1011.5
20161001062126 55 90 0.0 2.0 0.00 0.04 0.00 97 1011.6
20161001062027 55 90 0.0 2.0 0.00 0.04 0.00 97 1011.5
20161001061927 55 90 0.0 2.0 0.00 0.04 0.00 97 1011.5
20161001061726 55 90 1.0 1.0 0.00 0.04 0.00 97 1011.4
20161001061626 55 90 0.0 1.0 0.00 0.04 0.00 97 1011.6
20161001061527 55 90 0.0 1.0 0.00 0.04 0.00 99 1011.5
20161001061327 55 90 0.0 1.0 0.00 0.04 0.00 97 1011.6
20161001061226 55 90 0.0 1.0 0.00 0.04 0.00 97 1011.5
20161001061027 55 90 0.0 1.0 0.00 0.04 0.00 97 1011.5
20161001060827 55 90 0.0 1.0 0.00 0.04 0.00 97 1011.5
20161001060726 55 90 1.0 1.0 0.00 0.04 0.00 97 1011.4
20161001060627 55 90 1.0 1.0 0.00 0.04 0.00 97 1011.5
20161001060427 55 90 1.0 1.0 0.00 0.04 0.00 97 1011.6
20161001060226 55 90 1.0 1.0 0.00 0.04 0.00 97 1011.6
20161001060027 55 90 1.0 1.0 0.00 0.04 0.00 97 1011.5
20161001055927 55 0 0.0 0.0 0.00 0.04 0.00 97 1011.4
20161001055826 55 0 0.0 0.0 0.00 0.04 0.00 97 1011.4
20161001055726 55 0 0.0 0.0 0.00 0.04 0.00 97 1011.6
20161001055427 55 0 0.0 0.0 0.00 0.04 0.00 97 1011.6
20161001055326 55 0 0.0 0.0 0.00 0.04 0.00 97 1011.6
20161001055126 55 0 0.0 0.0 0.00 0.04 0.00 97 1011.6
20161001054927 55 0 0.0 0.0 0.00 0.04 0.00 97 1011.4
20161001054726 55 0 0.0 0.0 0.00 0.04 0.00 97 1011.4
20161001054427 55 0 0.0 0.0 0.00 0.04 0.00 97 1011.6
20161001054327 55 0 0.0 0.0 0.00 0.04 0.00 99 1011.6
20161001054126 55 0 0.0 0.0 0.00 0.04 0.00 97 1011.6
20161001054026 55 0 0.0 0.0 0.00 0.04 0.00 97 1011.5
20161001053827 55 0 0.0 0.0 0.00 0.04 0.00 97 1011.6
20161001053727 55 0 0.0 0.0 0.00 0.04 0.00 97 1011.6
20161001053626 55 0 0.0 0.0 0.00 0.04 0.00 97 1011.8
20161001053526 55 0 0.0 0.0 0.00 0.04 0.00 97 1011.7
20161001053427 55 0 0.0 0.0 0.00 0.04 0.00 97 1011.6
20161001053227 55 0 0.0 0.0 0.00 0.04 0.00 97 1011.7
20161001052926 55 0 0.0 0.0 0.00 0.04 0.00 97 1011.6
20161001052827 55 0 0.0 0.0 0.00 0.04 0.00 97 1011.6
20161001052627 55 0 0.0 0.0 0.00 0.04 0.00 97 1011.7
20161001052526 55 0 0.0 0.0 0.00 0.04 0.00 97 1011.6
20161001052426 55 0 0.0 0.0 0.00 0.04 0.00 97 1011.7
20161001052326 55 0 0.0 0.0 0.00 0.04 0.00 97 1011.6
20161001052227 55 0 0.0 0.0 0.00 0.04 0.00 97 1011.8
20161001052127 55 0 0.0 0.0 0.00 0.04 0.00 97 1011.6
20161001052027 55 0 0.0 0.0 0.00 0.04 0.00 97 1011.5
20161001051926 55 0 0.0 0.0 0.00 0.04 0.00 97 1011.7
20161001051826 55 0 0.0 0.0 0.00 0.04 0.00 97 1011.7
20161001051727 55 0 0.0 0.0 0.00 0.04 0.00 97 1011.6
20161001050526 55 0 0.0 0.0 0.00 0.04 0.00 97 1011.7
20161001050227 55 0 0.0 0.0 0.00 0.04 0.00 97 1011.7
20161001050036 55 0 0.0 0.0 0.00 0.04 0.00 97 1011.7
20161001045931 55 0 0.0 0.0 0.00 0.04 0.00 97 1011.7
20161001045732 55 0 0.0 0.0 0.00 0.04 0.00 97 1011.6
20161001045633 55 0 0.0 0.0 0.00 0.04 0.00 97 1011.7
20161001045533 55 0 0.0 0.0 0.00 0.04 0.00 97 1011.8
20161001045428 55 0 0.0 0.0 0.00 0.04 0.00 97 1011.7
20161001045330 55 0 0.0 0.0 0.00 0.04 0.00 97 1011.9
20161001044934 55 0 0.0 0.0 0.00 0.04 0.00 97 1011.7
20161001044738 55 0 0.0 0.0 0.00 0.04 0.00 97 1011.9
20161001044532 55 0 0.0 0.0 0.00 0.04 0.00 97 1011.8
20161001044431 55 0 0.0 0.0 0.00 0.04 0.00 97 1011.7
20161001044327 55 0 0.0 0.0 0.00 0.04 0.00 97 1011.7
20161001044226 55 0 0.0 0.0 0.00 0.04 0.00 97 1011.7
20161001044126 55 0 0.0 0.0 0.00 0.04 0.00 97 1012.0
20161001043828 55 0 0.0 0.0 0.00 0.04 0.00 99 1011.9
20161001043534 56 0 0.0 0.0 0.00 0.04 0.00 99 1011.7
20161001043335 56 0 0.0 0.0 0.00 0.04 0.00 99 1011.7
20161001043130 56 0 0.0 0.0 0.00 0.04 0.00 99 1011.8
20161001042827 56 0 0.0 0.0 0.00 0.04 0.00 99 1011.7
20161001042426 56 0 0.0 0.0 0.00 0.04 0.00 99 1011.7
20161001042326 56 0 0.0 0.0 0.00 0.04 0.00 99 1011.6
20161001042227 56 0 0.0 0.0 0.00 0.04 0.00 99 1011.7
20161001042127 56 0 0.0 0.0 0.00 0.04 0.00 99 1011.7
20161001041826 56 0 0.0 0.0 0.00 0.04 0.00 99 1011.7
20161001041727 56 0 0.0 0.0 0.00 0.04 0.00 99 1011.8
20161001041627 56 0 0.0 0.0 0.00 0.04 0.00 99 1011.8
20161001041426 56 0 0.0 0.0 0.00 0.04 0.00 99 1011.8
20161001041126 56 0 0.0 0.0 0.00 0.04 0.00 99 1011.7
20161001041027 56 0 0.0 0.0 0.00 0.04 0.00 99 1011.8
20161001040927 56 0 0.0 0.0 0.00 0.04 0.00 99 1011.8
20161001040829 56 0 0.0 0.0 0.00 0.04 0.00 99 1011.8
20161001040727 56 0 0.0 0.0 0.00 0.04 0.00 99 1011.8
20161001040531 56 0 0.0 0.0 0.00 0.04 0.00 99 1011.8
20161001040226 56 0 0.0 0.0 0.00 0.05 0.00 99 1011.9
20161001035826 56 0 0.0 0.0 0.00 0.05 0.05 99 1011.8
20161001035529 56 0 0.0 0.0 0.00 0.05 0.05 99 1011.8
20161001035227 56 0 0.0 0.0 0.00 0.06 0.05 99 1011.6
20161001034926 56 0 0.0 0.0 0.00 0.07 0.05 99 1011.6
20161001034727 56 0 0.0 0.0 0.00 0.07 0.05 99 1011.8
20161001034526 56 0 0.0 0.0 0.00 0.07 0.05 99 1011.7
20161001034326 56 0 0.0 0.0 0.00 0.08 0.05 99 1011.9
20161001034227 56 0 0.0 0.0 0.00 0.08 0.05 99 1011.8
20161001034127 56 0 0.0 0.0 0.00 0.08 0.05 99 1011.9
20161001033726 56 0 0.0 0.0 0.00 0.09 0.05 98 1011.8
20161001033627 56 0 0.0 0.0 0.00 0.09 0.05 97 1011.5
20161001033426 56 0 0.0 0.0 0.00 0.11 0.05 97 1011.5
20161001033326 56 0 0.0 0.0 0.00 0.11 0.05 97 1011.6
20161001033226 56 0 0.0 0.0 0.00 0.11 0.05 96 1011.6
20161001033027 56 0 0.0 0.0 0.00 0.11 0.05 96 1011.6
20161001032927 56 0 0.0 0.0 0.00 0.11 0.05 96 1011.5
20161001032726 57 0 0.0 0.0 0.00 0.11 0.05 96 1011.7
20161001032626 57 0 0.0 0.0 0.00 0.11 0.05 96 1011.6
20161001032526 57 0 0.0 0.0 0.00 0.11 0.05 96 1011.4
20161001032427 57 0 0.0 0.0 0.00 0.11 0.05 96 1011.4
20161001031827 57 0 0.0 0.0 0.00 0.11 0.05 95 1011.5
20161001031526 57 0 0.0 0.0 0.00 0.11 0.05 94 1011.4
20161001031427 57 0 0.0 0.0 0.00 0.12 0.05 94 1011.4
20161001031327 57 0 0.0 0.0 0.00 0.12 0.05 94 1011.5
20161001031226 57 0 0.0 0.0 0.00 0.12 0.05 94 1011.6
20161001030827 58 0 0.0 0.0 0.00 0.12 0.05 94 1011.4
20161001030626 58 0 0.0 0.0 0.00 0.12 0.05 94 1011.3
20161001030426 58 0 0.0 0.0 0.00 0.12 0.05 93 1011.5
20161001030327 58 0 0.0 0.0 0.00 0.12 0.05 93 1011.4
20161001030127 58 0 0.0 0.0 0.00 0.12 0.05 93 1011.4
20161001025927 58 0 0.0 0.0 0.00 0.13 0.05 93 1011.5
20161001025626 58 0 0.0 0.0 0.00 0.13 0.05 93 1011.5
20161001025427 57 0 0.0 0.0 0.00 0.14 0.05 93 1011.5
20161001025326 57 0 0.0 0.0 0.00 0.14 0.05 93 1011.4
20161001025226 57 0 0.0 0.0 0.00 0.14 0.05 92 1011.6
20161001025027 57 0 0.0 0.0 0.00 0.14 0.05 92 1011.5
20161001024926 57 0 0.0 0.0 0.00 0.14 0.05 92 1011.7
20161001024826 57 0 0.0 0.0 0.00 0.14 0.05 92 1011.6
20161001024726 57 0 0.0 0.0 0.00 0.14 0.05 92 1011.5
20161001024427 57 0 0.0 0.0 0.00 0.14 0.05 92 1011.4
20161001024327 57 0 0.0 0.0 0.00 0.14 0.05 92 1011.4
20161001024126 57 0 0.0 0.0 0.00 0.14 0.05 92 1011.5
20161001024026 57 0 0.0 0.0 0.00 0.14 0.05 92 1011.5
20161001023927 57 0 0.0 0.0 0.00 0.14 0.05 92 1011.3
20161001023726 58 0 0.0 0.0 0.00 0.14 0.05 92 1011.5
20161001023526 58 0 0.0 0.0 0.00 0.14 0.05 91 1011.2
20161001023427 58 0 0.0 0.0 0.00 0.14 0.05 91 1011.5
20161001023327 58 0 0.0 0.0 0.00 0.14 0.05 91 1011.5
20161001023026 58 0 0.0 0.0 0.00 0.14 0.05 91 1011.3
20161001022827 58 0 0.0 0.0 0.00 0.14 0.05 90 1011.4
20161001022727 57 0 0.0 0.0 0.00 0.14 0.05 90 1011.4
20161001022626 57 0 0.0 0.0 0.00 0.14 0.05 91 1011.3
20161001022426 57 0 0.0 0.0 0.00 0.14 0.05 90 1011.3
20161001022327 57 0 0.0 0.0 0.00 0.14 0.05 90 1011.3
20161001022227 57 0 0.0 0.0 0.00 0.14 0.05 90 1011.4
20161001022126 57 90 0.0 1.0 0.00 0.14 0.05 90 1011.3
20161001022026 57 90 0.0 1.0 0.00 0.14 0.05 90 1011.3
20161001021727 58 90 0.0 1.0 0.00 0.14 0.05 89 1011.5
20161001021626 58 90 0.0 1.0 0.00 0.14 0.05 89 1011.5
20161001021526 58 90 0.0 1.0 0.00 0.14 0.05 89 1011.4
20161001021426 58 90 0.0 1.0 0.00 0.14 0.05 89 1011.6
20161001021226 58 90 0.0 1.0 0.00 0.14 0.05 89 1011.5
20161001021126 58 90 1.0 1.0 0.00 0.14 0.05 89 1011.4
20161001020926 58 90 0.0 1.0 0.00 0.14 0.05 89 1011.3
20161001020127 58 90 0.0 3.0 0.00 0.14 0.05 88 1011.4
20161001015926 58 90 0.0 3.0 0.00 0.14 0.05 88 1011.2
20161001015727 58 90 0.0 3.0 0.00 0.14 0.05 88 1011.4
20161001015426 58 90 1.0 3.0 0.00 0.14 0.05 88 1011.5
20161001015326 58 90 1.0 4.0 0.00 0.14 0.05 88 1011.4
20161001015226 58 90 2.0 4.0 0.00 0.14 0.05 88 1011.5
20161001015127 58 90 2.0 4.0 0.00 0.14 0.05 88 1011.5
20161001015026 58 90 0.0 4.0 0.00 0.14 0.05 88 1011.5
20161001014926 58 90 1.0 4.0 0.00 0.14 0.05 88 1011.4
20161001014726 58 90 0.0 4.0 0.00 0.14 0.05 88 1011.5
20161001014627 58 90 1.0 4.0 0.00 0.14 0.05 88 1011.5
20161001014527 58 90 2.0 4.0 0.00 0.14 0.05 88 1011.4
20161001014326 58 90 2.0 4.0 0.00 0.14 0.05 88 1011.5
20161001014027 58 90 2.0 4.0 0.00 0.14 0.05 89 1011.5
20161001013926 58 90 1.0 3.0 0.00 0.14 0.05 89 1011.4
20161001013826 58 90 1.0 3.0 0.00 0.14 0.05 89 1011.6
20161001013726 58 90 1.0 3.0 0.00 0.14 0.05 89 1011.4
20161001013426 58 90 0.0 3.0 0.00 0.14 0.05 89 1011.6
20161001013226 58 90 1.0 3.0 0.00 0.14 0.05 89 1011.6
20161001013126 58 90 1.0 3.0 0.00 0.14 0.05 89 1011.5
20161001013026 58 90 1.0 3.0 0.00 0.14 0.05 89 1011.5
20161001012927 58 90 1.0 3.0 0.00 0.14 0.05 89 1011.6
20161001012827 58 90 1.0 2.0 0.00 0.14 0.05 89 1011.5
20161001012727 58 90 1.0 2.0 0.00 0.14 0.05 89 1011.5
20161001012626 58 90 1.0 2.0 0.00 0.14 0.05 89 1011.5
20161001012426 58 90 0.0 2.0 0.00 0.14 0.05 88 1011.5
20161001012126 58 90 1.0 2.0 0.00 0.14 0.05 88 1011.6
20161001012026 58 90 0.0 2.0 0.00 0.14 0.05 88 1011.5
20161001011926 58 90 0.0 2.0 0.00 0.14 0.05 88 1011.6
20161001011326 58 90 1.0 2.0 0.00 0.14 0.05 89 1011.6
20161001011126 58 90 0.0 2.0 0.00 0.14 0.05 89 1011.5
20161001011026 58 90 0.0 2.0 0.00 0.14 0.05 88 1011.5
20161001010826 58 90 0.0 2.0 0.00 0.14 0.05 88 1011.3
20161001010726 58 90 0.0 2.0 0.00 0.14 0.05 88 1011.3
20161001010526 58 90 1.0 3.0 0.00 0.14 0.05 87 1011.3
20161001010427 58 90 0.0 3.0 0.00 0.14 0.05 87 1011.3
20161001010331 58 90 0.0 3.0 0.00 0.14 0.05 87 1011.3
20161001010230 58 90 0.0 3.0 0.00 0.14 0.05 86 1011.3
20161001010026 58 90 0.0 3.0 0.00 0.14 0.05 86 1011.2
20161001005926 58 90 0.0 3.0 0.00 0.14 0.05 86 1011.4
20161001005826 59 90 0.0 3.0 0.00 0.14 0.05 86 1011.3
20161001005726 59 90 1.0 3.0 0.00 0.14 0.05 85 1011.2
20161001005627 59 90 1.0 3.0 0.00 0.14 0.05 85 1011.2
20161001005027 59 90 0.0 1.0 0.00 0.14 0.05 83 1011.3
20161001004926 59 90 0.0 1.0 0.00 0.14 0.05 83 1011.1
20161001004826 59 90 0.0 1.0 0.00 0.14 0.05 83 1011.4
20161001004726 59 90 0.0 1.0 0.00 0.14 0.05 83 1011.2
20161001004626 59 90 0.0 1.0 0.00 0.14 0.05 83 1011.3
20161001004526 59 90 0.0 2.0 0.00 0.14 0.05 83 1011.2
20161001004327 59 90 0.0 2.0 0.00 0.14 0.05 82 1011.2
20161001004226 59 90 0.0 2.0 0.00 0.14 0.05 82 1011.2
20161001004126 59 90 0.0 2.0 0.00 0.14 0.05 81 1011.1
20161001004027 60 90 0.0 2.0 0.00 0.14 0.05 81 1011.1
20161001003926 60 90 0.0 2.0 0.00 0.14 0.05 80 1011.2
20161001003826 60 90 0.0 2.0 0.00 0.14 0.05 80 1011.2
20161001003726 60 90 0.0 2.0 0.00 0.14 0.05 80 1011.1
20161001003426 60 90 1.0 3.0 0.00 0.14 0.05 80 1011.1
20161001003326 60 90 0.0 3.0 0.00 0.14 0.05 80 1011.1
20161001003227 60 90 0.0 3.0 0.00 0.14 0.05 79 1011.1
20161001003130 60 90 1.0 3.0 0.00 0.14 0.05 79 1011.1
20161001002926 60 90 1.0 3.0 0.00 0.14 0.05 79 1011.3
20161001002727 60 90 1.0 3.0 0.00 0.14 0.05 79 1011.0
20161001002627 60 90 2.0 3.0 0.00 0.14 0.05 79 1011.1
20161001002426 60 90 1.0 3.0 0.00 0.14 0.05 78 1011.0
20161001002326 60 90 2.0 5.0 0.00 0.14 0.05 78 1011.1
20161001002227 60 90 0.0 5.0 0.00 0.14 0.05 78 1011.1
20161001002127 60 90 0.0 5.0 0.00 0.14 0.05 78 1011.1
20161001002026 60 90 1.0 5.0 0.00 0.14 0.05 78 1011.1
20161001001926 60 90 1.0 5.0 0.00 0.14 0.05 78 1011.1
20161001001627 60 90 1.0 5.0 0.00 0.14 0.05 78 1011.0
20161001001426 60 90 1.0 5.0 0.00 0.14 0.05 78 1010.9
20161001001326 60 90 2.0 5.0 0.00 0.14 0.05 78 1011.1
20161001001226 60 90 1.0 3.0 0.00 0.14 0.05 78 1011.0
20161001001026 60 90 1.0 2.0 0.00 0.14 0.05 78 1011.2
20161001000926 60 90 0.0 2.0 0.00 0.14 0.05 78 1011.1
20161001000826 60 90 1.0 2.0 0.00 0.14 0.05 77 1011.2
20161001000226 61 90 1.0 4.0 0.00 0.14 0.05 76 1011.2
20161001000027 61 90 1.0 4.0 0.00 0.14 0.05 76 1011.2
20160930235826 61 90 1.0 4.0 0.00 0.14 0.05 75 1011.1
20160930235726 61 90 1.0 4.0 0.00 0.14 0.05 75 1011.1
20160930235126 61 90 1.0 3.0 0.00 0.14 0.05 74 1010.9
20160930235026 61 90 1.0 4.0 0.00 0.14 0.05 74 1011.0
20160930234927 61 90 2.0 4.0 0.00 0.14 0.05 74 1010.9
20160930234826 61 90 1.0 4.0 0.00 0.14 0.05 74 1011.1
20160930234726 61 90 1.0 4.0 0.00 0.14 0.05 74 1010.9
20160930234626 61 90 1.0 4.0 0.00 0.14 0.05 74 1011.0
20160930234527 61 90 1.0 5.0 0.00 0.14 0.05 73 1010.8
20160930234427 61 90 1.0 5.0 0.00 0.14 0.05 73 1011.2
20160930234326 61 90 1.0 5.0 0.00 0.14 0.05 73 1011.1
20160930234226 61 90 1.0 5.0 0.00 0.14 0.05 73 1011.0
20160930234126 61 90 1.0 5.0 0.00 0.14 0.05 73 1011.1
20160930233826 62 90 1.0 5.0 0.00 0.14 0.05 73 1011.2
20160930233526 62 90 3.0 5.0 0.00 0.14 0.05 73 1011.3
20160930233426 62 90 1.0 4.0 0.00 0.14 0.05 73 1011.0
20160930233327 62 90 1.0 4.0 0.00 0.14 0.05 73 1011.0
20160930232826 61 90 1.0 3.0 0.00 0.14 0.05 74 1011.3
20160930232727 61 90 1.0 3.0 0.00 0.14 0.05 74 1011.2
20160930232526 61 90 1.0 3.0 0.00 0.14 0.05 75 1011.2
20160930232426 61 90 1.0 2.0 0.00 0.14 0.05 75 1011.1
20160930232326 62 90 0.0 2.0 0.00 0.14 0.05 75 1011.2
20160930232227 62 90 1.0 2.0 0.00 0.14 0.05 75 1011.2
20160930232026 61 0 0.0 0.0 0.00 0.14 0.05 75 1011.1
20160930231926 61 0 0.0 0.0 0.00 0.14 0.05 75 1011.1
20160930231627 61 90 0.0 1.0 0.00 0.14 0.05 76 1011.3
20160930231526 60 90 0.0 1.0 0.00 0.14 0.05 78 1010.8
20160930231326 61 90 0.0 1.0 0.00 0.14 0.05 77 1011.1
20160930231227 61 90 0.0 1.0 0.00 0.14 0.05 76 1011.0
20160930231126 61 90 0.0 1.0 0.00 0.14 0.05 75 1011.0
20160930231026 61 90 0.0 1.0 0.00 0.14 0.05 76 1011.0
20160930230926 61 90 0.0 1.0 0.00 0.14 0.05 76 1011.1
20160930230826 61 0 0.0 0.0 0.00 0.14 0.05 76 1010.8
20160930230726 62 0 0.0 0.0 0.00 0.14 0.05 76 1011.0
20160930230627 62 0 0.0 0.0 0.00 0.14 0.05 75 1010.8
20160930230526 62 0 0.0 0.0 0.00 0.14 0.05 74 1010.7
20160930230426 62 0 0.0 0.0 0.00 0.14 0.05 75 1011.2
20160930230227 62 0 0.0 0.0 0.00 0.14 0.05 75 1010.9
20160930230127 62 0 0.0 0.0 0.00 0.14 0.05 76 1011.1
20160930225926 62 0 0.0 0.0 0.00 0.14 0.05 76 1011.0
20160930225727 62 0 0.0 0.0 0.00 0.14 0.05 75 1010.9
20160930225626 62 0 0.0 0.0 0.00 0.14 0.05 75 1010.8
20160930225426 62 0 0.0 0.0 0.00 0.14 0.05 75 1010.8
20160930225326 62 0 0.0 0.0 0.00 0.14 0.05 75 1011.0
20160930225127 62 0 0.0 0.0 0.00 0.14 0.05 75 1010.9
20160930224926 62 0 0.0 0.0 0.00 0.14 0.05 76 1010.8
20160930224726 62 0 0.0 0.0 0.00 0.14 0.05 77 1011.0
20160930224626 62 0 0.0 0.0 0.00 0.14 0.05 76 1010.8
20160930224527 62 0 0.0 0.0 0.00 0.14 0.05 76 1010.8
20160930224427 62 0 0.0 0.0 0.00 0.14 0.05 76 1010.8
20160930224326 62 0 0.0 0.0 0.00 0.14 0.05 75 1010.9
20160930224126 62 0 0.0 0.0 0.00 0.14 0.05 76 1011.1
20160930223927 63 0 0.0 0.0 0.00 0.14 0.05 75 1010.8
20160930223826 63 0 0.0 0.0 0.00 0.14 0.05 75 1010.9
20160930223626 63 0 0.0 0.0 0.00 0.14 0.05 74 1010.8
20160930223526 63 90 0.0 1.0 0.00 0.14 0.05 74 1010.9
20160930223426 63 90 0.0 1.0 0.00 0.14 0.05 74 1010.7
20160930223327 63 90 0.0 2.0 0.00 0.14 0.05 74 1011.1
20160930223226 63 90 0.0 2.0 0.00 0.14 0.05 74 1011.0
20160930223126 63 90 0.0 2.0 0.00 0.14 0.05 74 1010.9
20160930222927 63 90 0.0 2.0 0.00 0.14 0.05 75 1010.8
20160930222827 63 90 0.0 2.0 0.00 0.14 0.05 76 1010.6
20160930222327 63 90 1.0 2.0 0.00 0.14 0.05 74 1010.7
20160930222226 63 90 1.0 2.0 0.00 0.14 0.05 73 1010.7
20160930221926 63 90 1.0 2.0 0.00 0.14 0.05 74 1010.7
20160930221726 63 90 0.0 2.0 0.00 0.14 0.05 74 1010.6
20160930221526 63 90 0.0 2.0 0.00 0.14 0.05 72 1010.7
20160930221326 64 90 0.0 2.0 0.00 0.14 0.05 70 1010.9
20160930221027 64 90 1.0 2.0 0.00 0.14 0.05 70 1010.7
20160930220627 65 90 0.0 1.0 0.00 0.14 0.05 69 1010.6
20160930220527 65 90 0.0 3.0 0.00 0.14 0.05 69 1010.6
20160930220326 65 90 0.0 3.0 0.00 0.14 0.05 69 1010.7
20160930220127 65 90 0.0 3.0 0.00 0.14 0.05 69 1010.7
20160930215926 65 90 0.0 3.0 0.00 0.14 0.05 69 1010.7
20160930215326 65 90 0.0 1.0 0.00 0.14 0.05 68 1010.7
20160930215226 65 90 0.0 1.0 0.00 0.14 0.05 67 1010.7
20160930214726 66 90 0.0 2.0 0.00 0.14 0.05 66 1010.5
20160930214527 66 90 0.0 2.0 0.00 0.14 0.05 66 1010.6
20160930214226 66 90 0.0 2.0 0.00 0.14 0.05 62 1010.8
20160930214126 66 90 1.0 2.0 0.00 0.14 0.05 64 1010.8
20160930214026 67 90 0.0 2.0 0.00 0.14 0.05 64 1010.7
20160930213826 67 90 0.0 2.0 0.00 0.14 0.05 62 1010.7
20160930213526 67 90 1.0 3.0 0.00 0.14 0.05 64 1010.8
20160930213127 66 90 1.0 4.0 0.00 0.14 0.05 64 1010.7
20160930212927 66 90 1.0 4.0 0.00 0.14 0.05 64 1010.9
20160930212826 66 90 0.0 4.0 0.00 0.14 0.05 65 1010.9
20160930212726 66 90 1.0 4.0 0.00 0.14 0.05 64 1010.9
20160930212626 66 90 1.0 4.0 0.00 0.14 0.05 63 1010.9
20160930212427 66 90 1.0 4.0 0.00 0.14 0.05 62 1010.7
20160930212026 65 90 2.0 5.0 0.00 0.14 0.05 61 1010.7
20160930211526 66 90 1.0 5.0 0.00 0.14 0.05 63 1010.7
20160930211226 66 96 3.0 5.0 0.00 0.14 0.05 61 1010.7
20160930211126 66 102 3.0 7.0 0.00 0.14 0.05 60 1010.5
20160930211026 66 107 3.0 7.0 0.00 0.14 0.05 59 1010.5
20160930210827 68 115 3.0 7.0 0.00 0.14 0.05 58 1010.6
20160930210726 69 119 3.0 7.0 0.00 0.14 0.05 60 1010.5
20160930210526 69 128 2.0 7.0 0.00 0.14 0.05 60 1010.6
20160930210026 68 125 3.0 7.0 0.00 0.14 0.05 60 1010.5
20160930205926 68 125 5.0 7.0 0.00 0.14 0.05 59 1010.6
20160930205726 68 127 1.0 9.0 0.00 0.14 0.05 60 1010.5
20160930205526 68 118 3.0 9.0 0.00 0.14 0.05 62 1010.6
20160930205426 68 113 3.0 9.0 0.00 0.14 0.05 63 1010.6
20160930205326 68 112 2.0 9.0 0.00 0.14 0.05 63 1010.4
20160930205127 67 107 3.0 9.0 0.00 0.14 0.05 64 1010.4
20160930205026 66 104 4.0 9.0 0.00 0.14 0.05 62 1010.4
20160930204929 67 99 5.0 9.0 0.00 0.14 0.05 64 1010.6
20160930204735 68 90 5.0 7.0 0.00 0.14 0.05 63 1010.5
20160930204626 67 90 3.0 7.0 0.00 0.14 0.05 64 1010.5
20160930204527 68 90 4.0 7.0 0.00 0.14 0.05 64 1010.5
20160930204426 68 90 3.0 7.0 0.00 0.14 0.05 63 1010.4
20160930204226 68 90 6.0 7.0 0.00 0.14 0.05 65 1010.7
20160930203626 68 115 2.0 5.0 0.00 0.14 0.05 69 1010.6
20160930203427 66 123 1.0 5.0 0.00 0.14 0.05 70 1010.5
20160930203226 65 132 2.0 5.0 0.00 0.14 0.05 69 1010.6
20160930202927 64 135 0.0 5.0 0.00 0.14 0.05 72 1010.3
20160930202726 64 127 2.0 5.0 0.00 0.14 0.05 72 1010.4
20160930202626 64 123 1.0 5.0 0.00 0.14 0.05 72 1010.7
20160930202526 64 124 1.0 6.0 0.00 0.14 0.05 71 1010.4
20160930202426 64 121 3.0 7.0 0.00 0.14 0.05 71 1010.6
20160930202326 64 115 2.0 7.0 0.00 0.14 0.05 71 1010.5
20160930202126 64 109 2.0 7.0 0.00 0.14 0.05 70 1010.6
20160930201626 64 97 2.0 7.0 0.00 0.14 0.05 66 1010.6
20160930201526 65 93 4.0 7.0 0.00 0.14 0.05 65 1010.5
20160930201226 67 90 1.0 6.0 0.00 0.14 0.05 64 1010.7
20160930201126 67 90 2.0 6.0 0.00 0.14 0.05 65 1010.7
20160930201026 67 90 1.0 6.0 0.00 0.14 0.05 64 1010.6
20160930200926 67 90 3.0 6.0 0.00 0.14 0.05 65 1010.7
20160930200827 67 90 2.0 3.0 0.00 0.14 0.05 64 1010.6
20160930200726 65 90 1.0 4.0 0.00 0.14 0.05 67 1010.6
20160930200426 65 90 1.0 5.0 0.00 0.14 0.05 67 1010.6
20160930200326 65 90 1.0 5.0 0.00 0.14 0.05 67 1010.6
20160930200226 65 90 1.0 5.0 0.00 0.14 0.05 67 1010.5
20160930200026 65 90 1.0 5.0 0.00 0.14 0.05 67 1010.8
20160930195926 65 90 1.0 5.0 0.00 0.14 0.05 67 1010.8
20160930195626 66 90 2.0 5.0 0.00 0.14 0.05 69 1010.7
20160930195225 65 90 1.0 5.0 0.00 0.14 0.05 71 1010.8
20160930195026 65 90 3.0 5.0 0.00 0.14 0.05 71 1010.8
20160930194826 65 90 3.0 5.0 0.00 0.14 0.05 73 1010.7
20160930194726 65 90 3.0 5.0 0.00 0.14 0.05 73 1010.7
20160930194626 65 90 3.0 5.0 0.00 0.14 0.05 73 1010.7
20160930194426 65 90 3.0 5.0 0.00 0.14 0.05 71 1010.9
20160930194226 65 90 3.0 4.0 0.00 0.14 0.05 72 1010.9
20160930194026 65 90 1.0 4.0 0.00 0.14 0.05 70 1010.8
20160930193926 65 90 2.0 4.0 0.00 0.14 0.05 70 1010.9
20160930193826 65 90 2.0 4.0 0.00 0.14 0.05 70 1010.9
20160930193726 65 90 0.0 4.0 0.00 0.14 0.05 70 1010.9
20160930193627 64 90 1.0 4.0 0.00 0.14 0.05 71 1010.8
20160930193526 65 90 2.0 5.0 0.00 0.14 0.05 72 1010.8
20160930193426 65 90 2.0 5.0 0.00 0.14 0.05 73 1011.0
20160930193326 65 90 0.0 5.0 0.00 0.14 0.05 72 1010.8
20160930193227 64 90 1.0 6.0 0.00 0.14 0.05 72 1011.0
20160930192926 64 90 3.0 6.0 0.00 0.14 0.05 73 1011.1
20160930192826 64 91 2.0 6.0 0.00 0.14 0.05 73 1011.1
20160930192727 64 93 3.0 6.0 0.00 0.14 0.05 74 1010.8
20160930192526 64 103 2.0 6.0 0.00 0.14 0.05 73 1011.1
20160930192026 65 115 3.0 6.0 0.00 0.14 0.05 75 1010.8
20160930191926 65 116 3.0 6.0 0.00 0.14 0.05 75 1010.9
20160930191826 64 114 1.0 6.0 0.00 0.14 0.05 74 1011.0
20160930191726 64 112 2.0 6.0 0.00 0.14 0.05 73 1010.8
20160930191626 64 112 4.0 6.0 0.00 0.14 0.05 73 1011.0
20160930191526 64 112 5.0 6.0 0.00 0.14 0.05 73 1011.1
20160930191426 64 112 4.0 6.0 0.00 0.14 0.05 74 1010.9
20160930191326 64 111 3.0 6.0 0.00 0.14 0.05 74 1011.0
20160930191226 64 113 2.0 9.0 0.00 0.14 0.05 75 1010.8
20160930191127 64 115 3.0 9.0 0.00 0.14 0.05 75 1010.9
20160930190826 64 117 1.0 9.0 0.00 0.14 0.05 75 1010.9
20160930190726 63 117 1.0 9.0 0.00 0.14 0.05 74 1011.0
20160930190626 63 113 3.0 9.0 0.00 0.14 0.05 75 1011.1
20160930190526 63 108 3.0 9.0 0.00 0.14 0.05 76 1010.9
20160930190226 65 93 7.0 9.0 0.00 0.14 0.05 75 1010.9
20160930190026 65 84 1.0 6.0 0.00 0.14 0.05 74 1010.7
20160930185726 64 83 3.0 7.0 0.00 0.14 0.05 75 1010.8
20160930185526 65 87 4.0 7.0 0.00 0.14 0.05 77 1011.1
20160930185426 65 87 4.0 7.0 0.00 0.14 0.05 77 1010.9
20160930185028 64 93 3.0 7.0 0.00 0.14 0.05 77 1011.0
20160930184927 64 93 3.0 7.0 0.00 0.14 0.05 76 1010.9
20160930184726 65 93 3.0 7.0 0.00 0.14 0.05 76 1010.9
20160930184426 65 102 4.0 8.0 0.00 0.14 0.05 77 1010.9
20160930184227 65 104 4.0 11.0 0.00 0.14 0.05 77 1010.9
20160930184126 65 106 4.0 11.0 0.00 0.14 0.05 77 1010.9
20160930184027 65 111 3.0 11.0 0.00 0.14 0.05 79 1010.9
20160930183826 64 116 5.0 11.0 0.00 0.14 0.05 81 1011.1
20160930183426 63 104 7.0 11.0 0.00 0.14 0.05 78 1011.0
20160930183326 64 101 7.0 11.0 0.00 0.14 0.05 78 1011.1
20160930183226 64 101 5.0 10.0 0.00 0.14 0.05 78 1011.2
20160930183026 65 97 7.0 10.0 0.00 0.14 0.05 80 1011.2
20160930182926 65 92 3.0 8.0 0.00 0.14 0.05 79 1011.1
20160930182826 64 87 4.0 8.0 0.00 0.14 0.05 79 1011.0
20160930182626 64 84 3.0 8.0 0.00 0.14 0.05 79 1011.2
20160930182426 63 88 3.0 8.0 0.00 0.14 0.05 78 1011.0
20160930182227 64 91 3.0 8.0 0.00 0.14 0.05 80 1011.1
20160930182126 65 88 7.0 8.0 0.00 0.14 0.05 80 1011.2
20160930181826 64 94 5.0 8.0 0.00 0.14 0.05 80 1011.2
20160930181726 64 101 5.0 10.0 0.00 0.14 0.05 79 1011.3
20160930181526 64 115 5.0 10.0 0.00 0.14 0.05 80 1011.4
20160930181225 64 125 4.0 10.0 0.00 0.14 0.05 81 1011.2
20160930181126 65 128 5.0 10.0 0.00 0.14 0.05 81 1011.4
20160930181026 64 131 3.0 10.0 0.00 0.14 0.05 81 1011.4
20160930180826 64 131 7.0 10.0 0.00 0.14 0.05 81 1011.3
20160930180726 64 129 8.0 10.0 0.00 0.14 0.05 82 1011.3
20160930180426 64 127 8.0 10.0 0.00 0.14 0.05 82 1011.4
20160930180125 64 120 8.0 10.0 0.00 0.14 0.05 82 1011.4
20160930175926 63 119 3.0 7.0 0.00 0.14 0.05 82 1011.5
20160930175826 63 124 3.0 7.0 0.00 0.14 0.05 81 1011.5
20160930175727 63 129 3.0 8.0 0.00 0.14 0.05 81 1011.4
20160930175626 63 128 1.0 8.0 0.00 0.14 0.05 81 1011.5
20160930175326 63 117 1.0 8.0 0.00 0.14 0.05 82 1011.3
20160930174926 63 99 1.0 8.0 0.00 0.14 0.05 82 1011.6
20160930174826 63 96 1.0 8.0 0.00 0.14 0.05 83 1011.4
20160930174726 64 93 4.0 8.0 0.00 0.14 0.05 84 1011.5
20160930174625 64 90 4.0 7.0 0.00 0.14 0.05 84 1011.4
20160930174326 62 91 3.0 7.0 0.00 0.14 0.05 84 1011.6
20160930174126 63 97 3.0 7.0 0.00 0.14 0.05 83 1011.4
20160930173726 63 120 3.0 6.0 0.00 0.14 0.05 84 1011.4
20160930173626 63 124 1.0 4.0 0.00 0.14 0.05 84 1011.6
20160930173526 62 128 2.0 5.0 0.00 0.14 0.05 84 1011.4
20160930173426 62 133 2.0 5.0 0.00 0.14 0.05 85 1011.5
20160930173326 62 134 2.0 5.0 0.00 0.14 0.05 85 1011.6
20160930173226 62 129 2.0 5.0 0.00 0.14 0.05 85 1011.7
20160930172726 62 107 2.0 5.0 0.00 0.14 0.05 83 1011.6
20160930172626 62 103 2.0 5.0 0.00 0.14 0.05 83 1011.6
20160930172526 62 99 3.0 5.0 0.00 0.14 0.05 82 1011.5
20160930172426 62 93 3.0 5.0 0.00 0.14 0.05 82 1011.5
20160930172326 62 90 1.0 5.0 0.00 0.14 0.05 81 1011.5
20160930172226 63 90 3.0 5.0 0.00 0.14 0.05 80 1011.5
20160930172026 62 90 3.0 5.0 0.00 0.14 0.05 82 1011.6
20160930171626 63 90 0.0 5.0 0.00 0.14 0.05 80 1011.4
20160930171325 65 90 1.0 4.0 0.00 0.14 0.05 80 1011.3
20160930171126 63 90 1.0 4.0 0.00 0.14 0.05 81 1011.3
20160930171026 64 92 3.0 4.0 0.00 0.14 0.05 81 1011.4
20160930170926 64 94 2.0 4.0 0.00 0.14 0.05 81 1011.5
20160930170827 64 102 1.0 5.0 0.00 0.14 0.05 81 1011.6
20160930170726 64 110 1.0 5.0 0.00 0.14 0.05 82 1011.5
20160930170626 63 116 0.0 5.0 0.00 0.14 0.05 82 1011.8
20160930170526 63 118 2.0 5.0 0.00 0.14 0.05 82 1011.7
20160930170426 62 119 1.0 5.0 0.00 0.14 0.05 84 1011.5
20160930170026 62 113 0.0 5.0 0.00 0.14 0.05 84 1011.7
20160930165826 62 105 2.0 5.0 0.00 0.14 0.05 86 1011.6
20160930165726 63 97 2.0 5.0 0.00 0.14 0.05 86 1011.7
20160930165626 62 90 0.0 5.0 0.00 0.14 0.05 87 1011.6
20160930165326 62 90 1.0 5.0 0.00 0.14 0.05 88 1011.5
20160930165026 61 90 2.0 5.0 0.00 0.14 0.05 88 1011.7
20160930164926 61 90 1.0 5.0 0.00 0.14 0.05 88 1011.7
20160930164726 61 90 2.0 5.0 0.00 0.14 0.05 89 1011.9
20160930164526 61 90 1.0 3.0 0.00 0.14 0.05 87 1011.7
20160930164426 61 90 1.0 3.0 0.00 0.14 0.05 87 1012.0
20160930164326 61 90 1.0 3.0 0.00 0.14 0.05 87 1011.7
20160930163826 61 90 1.0 4.0 0.00 0.14 0.05 89 1011.7
20160930163626 61 90 0.0 4.0 0.00 0.14 0.05 89 1011.7
20160930163527 61 90 0.0 4.0 0.00 0.14 0.05 89 1011.6
20160930163226 61 90 0.0 4.0 0.00 0.14 0.05 89 1011.8
20160930163026 61 90 1.0 4.0 0.00 0.14 0.05 89 1011.8
20160930162926 61 90 1.0 4.0 0.00 0.14 0.05 90 1011.6
20160930162826 61 92 2.0 4.0 0.00 0.14 0.05 90 1011.8
20160930162726 61 100 1.0 4.0 0.00 0.14 0.05 90 1011.7
20160930162626 61 107 1.0 4.0 0.00 0.14 0.05 90 1011.7
20160930162425 61 111 0.0 4.0 0.00 0.14 0.05 90 1011.8
20160930162026 60 116 1.0 4.0 0.00 0.14 0.05 91 1011.7
20160930161725 61 107 3.0 4.0 0.00 0.14 0.05 91 1011.7
20160930161626 61 99 3.0 4.0 0.00 0.14 0.05 91 1011.8
20160930161526 61 90 2.0 3.0 0.00 0.14 0.05 91 1011.7
20160930161426 61 90 0.0 3.0 0.00 0.14 0.05 91 1011.7
20160930161326 61 90 0.0 3.0 0.00 0.14 0.05 92 1011.8
20160930161226 61 90 0.0 3.0 0.00 0.14 0.05 92 1011.7
20160930161126 61 90 0.0 3.0 0.00 0.14 0.05 91 1011.8
20160930161026 61 90 0.0 3.0 0.00 0.14 0.05 92 1011.7
20160930160926 60 90 2.0 3.0 0.00 0.14 0.05 92 1011.7
20160930160826 60 90 0.0 1.0 0.00 0.14 0.05 92 1011.8
20160930160725 60 0 0.0 0.0 0.00 0.14 0.05 92 1011.8
20160930160426 60 90 0.0 3.0 0.00 0.14 0.05 92 1011.8
20160930160326 60 90 0.0 3.0 0.00 0.14 0.05 92 1011.9
20160930160225 60 90 0.0 3.0 0.00 0.14 0.05 92 1011.8
20160930160125 60 90 0.0 3.0 0.00 0.14 0.05 92 1011.9
20160930160026 60 93 0.0 3.0 0.00 0.14 0.05 92 1011.8
20160930155926 60 95 0.0 3.0 0.00 0.14 0.05 92 1011.8
20160930155826 60 98 0.0 3.0 0.00 0.14 0.05 91 1011.8
20160930155526 60 98 1.0 3.0 0.00 0.14 0.05 92 1011.9
20160930155326 60 120 1.0 3.0 0.00 0.14 0.05 92 1011.8
20160930155226 60 135 0.0 2.0 0.00 0.14 0.05 92 1011.8
20160930155126 60 135 0.0 3.0 0.00 0.14 0.05 92 1011.8
20160930154726 60 135 0.0 4.0 0.00 0.14 0.05 92 1011.7
20160930154626 60 135 0.0 4.0 0.00 0.14 0.05 92 1011.7
20160930154526 60 135 0.0 4.0 0.00 0.14 0.05 91 1011.9
20160930154326 60 135 0.0 4.0 0.00 0.14 0.05 91 1011.7
20160930154225 60 135 1.0 4.0 0.00 0.14 0.05 92 1011.8
20160930154126 60 135 1.0 4.0 0.00 0.14 0.05 92 1011.8
20160930154026 60 135 2.0 4.0 0.00 0.14 0.05 91 1011.8
20160930153926 60 135 1.0 4.0 0.00 0.14 0.05 90 1011.6
20160930153726 60 135 3.0 4.0 0.00 0.14 0.05 90 1011.7